When you browse on this site, cookies collect data to enhance your experience and personalize the content and advertising you see.
Visit our Privacy Policy to learn more. By continuing to use the site, you agree to this use of cookies and data.
  • In Romania
  • List of Countries
  • For 7 days
  • Water Temperature
  • Satellite Maps
  • Weather Map
  • Weather Widgets
  • user-avatar
    Login

    Hourly Weather Shusha

    Today, 20 June, Thursday

    Time Temperature Precipitation Wind Pressure Humidity
    00:00 +19°C° 0 mm 1 mps 658 mmHg 57%
    01:00 +17°C° 0 mm 2 mps 658 mmHg 57%
    02:00 +17°C° 0 mm 2 mps 658 mmHg 57%
    03:00 +17°C° 0 mm 2 mps 657 mmHg 57%
    04:00 +18°C° 0 mm 2 mps 658 mmHg 58%
    05:00 +19°C° 0 mm 1 mps 658 mmHg 58%
    06:00 +20°C° 0 mm 1 mps 658 mmHg 59%
    07:00 +22°C° 0 mm 1 mps 659 mmHg 52%
    08:00 +23°C° 0 mm 1 mps 659 mmHg 46%
    09:00 +24°C° 0 mm 2 mps 659 mmHg 39%
    10:00 +25°C° 0 mm 2 mps 659 mmHg 38%
    11:00 +26°C° 0 mm 2 mps 659 mmHg 37%
    12:00 +27°C° 0 mm 3 mps 658 mmHg 37%
    13:00 +27°C° 0 mm 3 mps 658 mmHg 37%
    14:00 +27°C° 0 mm 3 mps 658 mmHg 37%
    15:00 +27°C° 0 mm 3 mps 657 mmHg 37%
    16:00 +27°C° 0 mm 3 mps 657 mmHg 40%
    17:00 +26°C° 0 mm 2 mps 657 mmHg 44%
    18:00 +25°C° 0 mm 2 mps 657 mmHg 48%
    19:00 +24°C° 0 mm 2 mps 657 mmHg 49%
    20:00 +21°C° 0 mm 2 mps 657 mmHg 49%
    21:00 +20°C° 0 mm 1 mps 657 mmHg 50%
    22:00 +20°C° 0 mm 1 mps 657 mmHg 50%
    23:00 +19°C° 0 mm 1 mps 657 mmHg 49%

    Tomorrow, 21 June, Friday

    Time Temperature Precipitation Wind Pressure Humidity
    00:00 +19°C° 0 mm 1 mps 657 mmHg 49%
    01:00 +19°C° 0 mm 1 mps 657 mmHg 50%
    02:00 +18°C° 0 mm 1 mps 656 mmHg 51%
    03:00 +17°C° 0 mm 2 mps 656 mmHg 52%
    04:00 +19°C° 0.1 mm 1 mps 657 mmHg 54%
    05:00 +19°C° 0.1 mm 1 mps 657 mmHg 56%
    06:00 +20°C° 0.1 mm 1 mps 657 mmHg 58%
    07:00 +20°C° 0.1 mm 2 mps 658 mmHg 54%
    08:00 +21°C° 0.1 mm 2 mps 658 mmHg 50%
    09:00 +23°C° 0.1 mm 2 mps 658 mmHg 46%
    10:00 +24°C° 0.1 mm 2 mps 658 mmHg 46%
    11:00 +25°C° 0.1 mm 3 mps 658 mmHg 46%
    12:00 +25°C° 0.1 mm 3 mps 658 mmHg 46%
    13:00 +25°C° 0.2 mm 3 mps 658 mmHg 47%
    14:00 +25°C° 0.2 mm 3 mps 658 mmHg 48%
    15:00 +25°C° 0.2 mm 3 mps 658 mmHg 49%
    16:00 +25°C° 0.1 mm 3 mps 658 mmHg 52%
    17:00 +24°C° 0.1 mm 3 mps 658 mmHg 55%
    18:00 +24°C° 0.1 mm 2 mps 658 mmHg 58%
    19:00 +21°C° 0 mm 2 mps 658 mmHg 61%
    20:00 +20°C° 0 mm 2 mps 658 mmHg 63%
    21:00 +19°C° 0 mm 2 mps 658 mmHg 66%
    22:00 +18°C° 0 mm 2 mps 658 mmHg 67%
    23:00 +18°C° 0 mm 2 mps 658 mmHg 67%

    Day after tomorrow, 22 June, Saturday

    Time Temperature Precipitation Wind Pressure Humidity
    00:00 +18°C° 0 mm 2 mps 658 mmHg 67%
    01:00 +18°C° 0 mm 2 mps 658 mmHg 67%
    02:00 +17°C° 0 mm 2 mps 658 mmHg 67%
    03:00 +17°C° 0 mm 2 mps 658 mmHg 67%
    04:00 +18°C° 0 mm 2 mps 659 mmHg 66%
    05:00 +19°C° 0 mm 1 mps 659 mmHg 65%
    06:00 +20°C° 0 mm 1 mps 660 mmHg 64%
    07:00 +21°C° 0 mm 2 mps 660 mmHg 57%
    08:00 +23°C° 0 mm 2 mps 661 mmHg 51%
    09:00 +25°C° 0 mm 2 mps 661 mmHg 44%
    10:00 +26°C° 0 mm 3 mps 661 mmHg 44%
    11:00 +26°C° 0 mm 3 mps 661 mmHg 43%
    12:00 +27°C° 0 mm 3 mps 661 mmHg 42%
    13:00 +27°C° 0 mm 3 mps 661 mmHg 42%
    14:00 +27°C° 0 mm 3 mps 661 mmHg 43%
    15:00 +27°C° 0 mm 3 mps 661 mmHg 43%
    16:00 +27°C° 0 mm 3 mps 660 mmHg 45%
    17:00 +27°C° 0 mm 2 mps 660 mmHg 48%
    18:00 +26°C° 0 mm 2 mps 660 mmHg 50%
    19:00 +24°C° 0 mm 2 mps 660 mmHg 53%
    20:00 +23°C° 0 mm 1 mps 660 mmHg 55%
    21:00 +21°C° 0 mm 1 mps 660 mmHg 58%
    22:00 +21°C° 0 mm 1 mps 660 mmHg 57%
    23:00 +19°C° 0 mm 2 mps 660 mmHg 57%

    23 June, Sunday

    Time Temperature Precipitation Wind Pressure Humidity
    00:00 +19°C° 0 mm 2 mps 660 mmHg 56%
    01:00 +19°C° 0 mm 2 mps 660 mmHg 56%
    02:00 +19°C° 0 mm 2 mps 660 mmHg 56%
    03:00 +18°C° 0 mm 2 mps 660 mmHg 56%
    04:00 +19°C° 0 mm 2 mps 660 mmHg 57%
    05:00 +21°C° 0 mm 1 mps 660 mmHg 58%
    06:00 +22°C° 0 mm 1 mps 661 mmHg 58%
    07:00 +23°C° 0 mm 1 mps 661 mmHg 53%
    08:00 +25°C° 0 mm 1 mps 661 mmHg 47%
    09:00 +26°C° 0 mm 1 mps 662 mmHg 41%
    10:00 +27°C° 0 mm 1 mps 662 mmHg 40%
    11:00 +28°C° 0 mm 2 mps 662 mmHg 39%
    12:00 +29°C° 0 mm 2 mps 662 mmHg 38%
    13:00 +29°C° 0 mm 2 mps 662 mmHg 39%
    14:00 +30°C° 0 mm 2 mps 662 mmHg 39%
    15:00 +30°C° 0 mm 2 mps 661 mmHg 40%
    16:00 +29°C° 0 mm 2 mps 661 mmHg 43%
    17:00 +29°C° 0 mm 2 mps 661 mmHg 46%
    18:00 +28°C° 0 mm 1 mps 661 mmHg 50%
    19:00 +26°C° 0 mm 1 mps 660 mmHg 51%
    20:00 +25°C° 0 mm 1 mps 660 mmHg 53%
    21:00 +23°C° 0 mm 1 mps 660 mmHg 55%
    22:00 +21°C° 0 mm 2 mps 660 mmHg 55%
    23:00 +21°C° 0 mm 2 mps 660 mmHg 54%

    24 June, Monday

    Time Temperature Precipitation Wind Pressure Humidity
    00:00 +21°C° 0 mm 2 mps 660 mmHg 53%
    01:00 +21°C° 0 mm 2 mps 660 mmHg 52%
    02:00 +20°C° 0 mm 2 mps 660 mmHg 51%
    03:00 +20°C° 0 mm 2 mps 660 mmHg 50%
    04:00 +22°C° 0 mm 1 mps 660 mmHg 51%
    05:00 +22°C° 0 mm 1 mps 660 mmHg 51%
    06:00 +23°C° 0 mm 1 mps 660 mmHg 52%
    07:00 +24°C° 0 mm 1 mps 661 mmHg 47%
    08:00 +26°C° 0 mm 2 mps 661 mmHg 42%
    09:00 +28°C° 0 mm 2 mps 661 mmHg 37%
    10:00 +28°C° 0 mm 2 mps 661 mmHg 36%
    11:00 +29°C° 0 mm 2 mps 661 mmHg 36%
    12:00 +29°C° 0 mm 2 mps 661 mmHg 36%
    13:00 +30°C° 0 mm 2 mps 661 mmHg 37%
    14:00 +30°C° 0 mm 2 mps 661 mmHg 37%
    15:00 +30°C° 0 mm 2 mps 660 mmHg 38%
    16:00 +29°C° 0 mm 2 mps 660 mmHg 41%
    17:00 +29°C° 0 mm 2 mps 660 mmHg 44%
    18:00 +28°C° 0 mm 3 mps 660 mmHg 46%
    19:00 +26°C° 0 mm 2 mps 660 mmHg 47%
    20:00 +24°C° 0 mm 2 mps 660 mmHg 47%
    21:00 +21°C° 0 mm 2 mps 660 mmHg 48%
    22:00 +21°C° 0 mm 2 mps 660 mmHg 47%
    23:00 +21°C° 0 mm 2 mps 660 mmHg 46%

    25 June, Tuesday

    Time Temperature Precipitation Wind Pressure Humidity
    00:00 +20°C° 0 mm 2 mps 660 mmHg 45%
    01:00 +20°C° 0 mm 2 mps 659 mmHg 44%
    02:00 +20°C° 0 mm 3 mps 659 mmHg 43%
    03:00 +20°C° 0 mm 3 mps 659 mmHg 41%
    04:00 +20°C° 0 mm 2 mps 660 mmHg 43%
    05:00 +21°C° 0 mm 2 mps 660 mmHg 46%
    06:00 +21°C° 0 mm 2 mps 660 mmHg 48%
    07:00 +24°C° 0 mm 2 mps 660 mmHg 43%
    08:00 +26°C° 0 mm 2 mps 661 mmHg 39%
    09:00 +27°C° 0 mm 1 mps 661 mmHg 34%
    10:00 +28°C° 0 mm 2 mps 661 mmHg 33%
    11:00 +29°C° 0 mm 2 mps 661 mmHg 33%
    12:00 +30°C° 0 mm 2 mps 661 mmHg 33%
    13:00 +30°C° 0 mm 2 mps 661 mmHg 33%
    14:00 +31°C° 0 mm 2 mps 661 mmHg 33%
    15:00 +31°C° 0 mm 2 mps 661 mmHg 33%
    16:00 +30°C° 0 mm 2 mps 661 mmHg 36%
    17:00 +30°C° 0 mm 1 mps 660 mmHg 40%
    18:00 +29°C° 0 mm 1 mps 660 mmHg 43%
    19:00 +27°C° 0 mm 1 mps 660 mmHg 44%
    20:00 +25°C° 0 mm 1 mps 660 mmHg 45%
    21:00 +23°C° 0 mm 1 mps 660 mmHg 47%
    22:00 +23°C° 0 mm 1 mps 660 mmHg 46%
    23:00 +23°C° 0 mm 2 mps 659 mmHg 46%
    Show more